Showing default

MIDAS 5 (STRONGBACK), 271

Orbit data source: Space-Track

MIDAS 5 (STRONGBACK), 271 is a payload satellite owned by USAF SSD (US) in LEO that was launched on Mon, 09 Apr 1962 UTC via an ATLAS AGENA B launch vehicle from the Air Force Western Test Range (AFWTR). Payload-class satellites include a variety of spacecraft equipped with specific instruments for various scientific and technological missions. These include communications satellites like Starlink; space stations such as the ISS; scientific satellites like the Hubble; Earth observation satellites from companies like Planet Labs, Umbra, and HawkEye 360; GPS; miniature CubeSats for education and research; and military/defense satellites.

Loading next visibility...
Identifier
271, 1962-010A
Orbit
LEO
Last TLE update
1 day ago
Origin
Manufacturer
LMSC
Mission
Defense Early Warn
Bus & Motor
MIDAS, Unknown motor
Mass
~1,543 kg wet, ~840 kg dry
Launch date (UTC)
1962-04-09 (63 years ago)
Launch vehicle
ATLAS AGENA B
Launch site
Air Force Western Test Range (AFWTR)
Object type
Payload
Rocket body
Debris
Shape & HBR
Cyl, 8.99 m
Radar Cross Section
11.475 m², Large (>1 m²)

Expand to show TLE details & history

TLE from 1 day ago
0 MIDAS 5 (STRONGBACK)
1 00271U 62010A   25128.41470741  .00000009  00000-0  90840-3 0  9998
2 00271  86.6758  14.6620 0327757 166.6927 194.2878  9.41307302167584
Epoch: 2025-05-08T09:57Z
Definitive object data (Epoch: 2025-05-08T09:57:10.72Z)
Latitude
0.00001°
Longitude
-1.11821°
Altitude
3,400.785 km
Speed
6.283 km/s
True Right ascension
00h 58m 38s
True Declination
0° 00' 00"
Sunlit
Object was in daylight at TLE epoch
Visualization TLE readout
Latitude
-22.01844°
Longitude
-2.6424°
Altitude
3,412.775 km
Speed
6.276 km/s
Apparent Right ascension
01h 13m 57s
Apparent Declination
-61° 23' 11"
Sunlit
Object is in daylight
Visualization observer readout
Local Sidereal Time
00:34:08
Azimuth
175.152° S
Elevation
-11.626°
Doppler factor
1
Orbital elements
Apogee altitude
3,405.077 km
Perigee altitude
2,784.126 km
Semi-major axis
9,472.738 km
Eccentricity
0.0327757
Inclination
86.6758°
RAAN
14.662°
Arg. of periapsis
166.6927°
True anomaly
193.39637°
Mean anomaly
194.2878°
Eccentric anomaly
193.83863°
Mean motion
2.35413 °/min
BSTAR
0.0009084
Orbital period
152.92 mins
Loading maneuver chart data...
Loading SW <> Apogee altitude chart data...
Loading historical data...
Loading historical data...
Loading historical data...
Loading historical data...
Loading historical data...
Loading historical data...
Loading historical data...

MIDAS 5 (STRONGBACK) Visibility forecast

Observer location: undefined°, undefined°

Span
Click to sort rows by Start time (UTC) header in descending order
Start Az.
Max El. time (UTC)
Max El. Az.
Max El.
End time (UTC)
End Az.
33 mins2025-05-09 16:34:40.128Z174.57° S2025-05-09 16:51:40.128Z73.462° E44.927°2025-05-09 17:07:40.128Z3.497° NNE
25 mins2025-05-09 19:14:40.128Z244.958° WSW2025-05-09 19:26:40.128Z292.357° WNW23.843°2025-05-09 19:39:40.128Z347.014° N
6 mins2025-05-10 01:03:40.128Z37.181° NE2025-05-10 01:06:40.128Z49.597° ENE10.995°2025-05-10 01:09:40.128Z62.083° ENE
27 mins2025-05-10 03:31:40.128Z3.449° NNE2025-05-10 03:45:40.128Z89.089° E41.14°2025-05-10 03:58:40.128Z160.031° S
23 mins2025-05-10 06:05:40.128Z343.823° N2025-05-10 06:17:40.128Z284.564° WNW30.494°2025-05-10 06:28:40.128Z230.291° WSW
31 mins2025-05-10 15:33:40.128Z150.168° SSE2025-05-10 15:49:40.128Z75.902° E39.497°2025-05-10 16:04:40.128Z8.819° NNE
|